OPS 4682 DEB, 38374

Orbit data source: Space-Track

OPS 4682 DEB, 38374 is space debris in LEO originally from a launch on Sat, 03 Apr 1965 UTC launched from the Air Force Western Test Range (AFWTR). Debris objects in space refer to the collection of defunct objects orbiting the Earth. Examples of debris include non-operational satellites, rocket bodies, and fragments generated from explosions, collisions, or faulty payload assembly.

Loading next visibility...
Identifier
38374, 1965-027CB
Orbit
LEO
Country
Flag of USUS
Related business
Manufacturer
Unknown
Mission
Spacecraft
Bus & Motor
Unknown
Mass
Unknown
Launch date (UTC)
1965-04-03 (61 years ago)
Launch vehicle
Unknown
Launch site
Air Force Western Test Range (AFWTR)
Object type
Payload
Rocket body
Debris
Shape & HBR
Unknown shape, 0.1 m
Radar Cross Section
Small (<0.1 m²)

Expand to show TLE details & history
Last TLE update: 7 hours ago

TLE from 7 hours ago
0 OPS 4682 DEB
1 38374U 65027CB  26119.45547279  .00000985  00000-0  31855-2 0  9993
2 38374  90.2526  12.9005 0025258 353.1053   6.9719 13.01306016606296
Epoch: 2026-04-29T10:55Z
TLE epoch observation values (Epoch: 2026-04-29T10:55:52.849Z)
Latitude
0.00001°
Longitude
-8.48589°
Altitude
1,240.714 km
Speed
7.244 km/s
True Right ascension
00h 51m 36s
True Declination
0° 00' 00"
Sunlit
Object was in daylight at epoch
Visualization orbit readout
Latitude
Unknown
Longitude
Unknown
Altitude
Unknown
Speed
Unknown
Apparent Right ascension
Unknown
Apparent Declination
Unknown
Sunlit
N/A
Visualization observer readout
Local Sidereal Time
01:45:05
Azimuth
Unknown
Elevation
Unknown
Doppler factor
Unknown
Orbital elements
Apogee altitude
1,273.376 km
Perigee altitude
1,234.821 km
Semi-major axis
7,632.236 km
Eccentricity
0.00253
Inclination
90.2526°
RAAN
12.9005°
Arg. of periapsis
353.1053°
True anomaly
7.00714°
Mean anomaly
6.9719°
Eccentric anomaly
6.98951°
Mean motion
3.25511 °/min
Orbital period
110.6 mins
BSTAR
0.0031855
Loading maneuver chart data...
Computing Atmospheric mass density...
Loading historical data...
Loading historical data...
Loading historical data...
Loading historical data...
Loading historical data...
Loading historical data...
Loading historical data...

Documentation

Showing up to 5 results
|